#timestamp,LO_Frequency,Hit,StdDev 
1608483615.5,286047000.6,N
1608483635.3,286047000.2,N
1608483655.1,286047000.4,N
1608483675.9,286046999.7,N
1608483695.7,286047000.3,N
1608483715.5,286046999.8,N
1608483735.4,286046999.9,N
1608483755.2,286047000.5,N
1608483775.0,286047002.4,N
1608483775.9,286047002.4,N
1608483795.8,286046999.7,N
1608483815.6,286047002.3,N
1608483835.4,286047002.0,N
1608483855.3,286047001.7,N
1608483875.1,286047004.3,Y
1608483876.0,286047004.3,P
1608483895.8,286047002.5,N
1608483915.7,286047001.5,N
1608483935.5,286047002.3,N
1608483955.3,286047001.5,N
1608483975.2,286047002.2,N
1608483995.9,286047003.9,Y
1608484015.7,286047000.9,P
1608484035.6,286047000.7,N
1608484055.4,286047000.2,N
1608484075.2,286047000.3,N
1608484095.1,286047002.2,Y
1608484096.0,286047002.2,P
1608484115.8,286047002.4,P
1608484135.6,286046999.9,N
1608484155.5,286047000.1,N
1608484175.3,286046999.9,N
1608484195.1,286047000.1,N
1608484215.9,286047000.0,N
1608484235.7,286047002.6,N
1608484255.5,286047002.3,N
1608484275.4,286047000.2,N
1608484295.2,286047002.4,N
1608484315.0,286047002.0,N
1608484315.9,286047002.0,N
1608484335.8,286047001.4,N
1608484355.6,286047001.7,N
1608484375.4,286047004.1,Y
1608484395.3,286046999.7,P
1608484415.1,286047002.4,P
1608484416.0,286047002.4,N
1608484435.8,286047002.1,N
1608484455.7,286047004.4,Y
1608484475.5,286046999.7,P
1608484495.3,286046999.9,N
1608484515.2,286047000.4,N
1608484535.9,286047000.2,N
1608484555.7,286047001.5,N
1608484575.5,286047001.9,N
1608484595.4,286047001.5,N
1608484615.2,286047003.6,Y
1608484635.0,286047001.6,P
1608484636.0,286047001.6,P
1608484655.8,286047002.5,P
1608484675.6,286047001.7,N
1608484695.5,286047001.9,Y
1608484715.3,286047002.7,P
1608484735.1,286047002.0,P
1608484755.9,286047002.3,P
1608484775.7,286047002.5,Y
1608484795.5,286047000.8,P
1608484815.4,286047001.2,N
1608484835.2,286046998.6,N
1608484855.0,286046998.5,N
1608484855.9,286046998.5,N
1608484875.8,286047000.9,N
1608484895.6,286046998.2,N
1608484915.4,286047001.0,N
1608484935.2,286047000.6,N
1608484955.1,286046999.9,N
1608484956.0,286046999.9,N
1608484975.8,286046999.7,N
1608484995.6,286046999.9,N
1608485015.5,286046999.9,N
1608485035.3,286047000.6,N
1608485055.1,286047002.3,N
1608485075.9,286047002.8,N
1608485095.7,286046999.7,N
1608485115.5,286047000.4,N
1608485135.4,286047000.8,N
1608485155.2,286046998.5,N
1608485175.0,286047000.6,N
1608485175.9,286047000.6,N
1608485195.8,286047002.8,N
1608485215.6,286047000.0,N
1608485235.4,286047000.4,N
1608485255.3,286047000.2,N
1608485275.1,286047002.6,N
1608485295.8,286046999.9,N
1608485315.7,286046998.5,N
1608485335.5,286047000.7,N
1608485355.3,286047002.6,N
1608485375.2,286047001.5,N
1608485395.0,286047001.6,N
1608485395.9,286047001.6,N
1608485415.7,286047002.1,N
1608485435.6,286047000.1,N
1608485455.4,286047002.4,N
1608485475.2,286047002.6,N
1608485495.1,286047002.3,N
1608485496.0,286047002.3,N
1608485515.8,286046999.8,N
1608485535.6,286047002.7,N
1608485555.5,286047002.4,N
1608485575.3,286047001.9,N
1608485595.1,286047002.2,N
1608485615.9,286047002.8,N
1608485635.7,286047002.6,N
1608485655.5,286047001.8,N
1608485675.4,286047004.4,Y
1608485695.2,286047002.2,P
1608485715.0,286047002.0,P
1608485715.9,286047002.0,P
1608485735.8,286047002.0,Y
1608485755.6,286047001.0,P
1608485775.4,286047000.5,N
1608485795.3,286046998.6,N
1608485815.1,286047001.0,N
1608485835.8,286046999.9,N
1608485855.7,286047002.6,N
1608485875.5,286047002.4,N
1608485895.3,286047000.7,N
1608485915.2,286047000.1,N
1608485935.9,286047000.0,N
1608485955.7,286047001.1,N
1608485975.6,286047000.6,N
1608485995.4,286046998.3,N
1608486015.2,286046998.6,N
1608486035.1,286046999.1,N
1608486036.0,286046999.1,N
1608486055.8,286047001.2,N
1608486075.6,286046999.1,N
1608486095.5,286046998.1,N
1608486115.3,286046999.5,N
1608486135.1,286046999.6,N
1608486155.9,286046998.4,N
1608486175.7,286046998.5,N
1608486195.5,286046998.2,N
1608486215.4,286047001.2,N
1608486235.2,286047000.7,N
1608486255.0,286047000.9,N
1608486255.9,286047000.9,N
1608486275.8,286047000.0,N
1608486295.6,286046998.7,N
1608486315.4,286046999.5,N
1608486335.3,286046997.7,N
1608486355.1,286046996.9,N
1608486356.0,286046996.9,N
1608486375.8,286046996.5,N
1608486395.7,286046997.1,N
1608486415.5,286046997.3,N
1608486435.3,286046997.3,N
1608486455.2,286046998.0,N
1608486475.9,286046997.7,N
1608486495.7,286046996.8,N
1608486515.6,286046997.3,N
1608486535.4,286046996.6,N
1608486555.2,286046997.0,N
1608486575.1,286046997.6,N
1608486576.0,286046997.6,N
1608486595.8,286046997.5,N
1608486615.6,286046995.1,Y
1608486635.5,286046999.4,P
1608486655.3,286046997.0,P
1608486675.1,286046996.8,P
1608486695.8,286046999.0,N
1608486715.7,286046998.1,N
1608486735.5,286046996.8,Y
1608486755.3,286047000.8,P
1608486775.2,286046999.3,N
1608486795.0,286046998.5,N
1608486795.9,286046998.5,N
1608486815.7,286046998.4,N
1608486835.6,286046998.9,N
1608486855.4,286046998.7,N
1608486875.2,286046998.9,N
1608486895.1,286046999.3,N
1608486896.0,286046999.3,N
1608486915.8,286046998.8,N
1608486935.6,286046999.4,N
1608486955.5,286046999.5,N
1608486975.3,286046999.4,N
1608486995.1,286046999.6,N
1608487015.9,286046997.0,Y
1608487035.7,286046999.4,P
1608487055.5,286046998.9,P
1608487075.4,286046998.2,P
1608487095.2,286047000.9,N
1608487115.0,286046998.3,N
1608487115.9,286046998.3,N
1608487135.8,286046998.8,N
1608487155.6,286046999.0,N
1608487175.4,286046996.6,Y
1608487195.3,286046998.8,P
